• In Uzbekistan
  • List of Countries
  • For 7 days
  • Water Temperature
  • Satellite Maps
  • Weather Map
  • Weather Widgets
  • user-avatar
    Login

    Hourly Weather Juwaja

    Today, 21 November, Wednesday

    Time Temperature Precipitation Wind Pressure Humidity
    00:00 +17°C° 0 mm 0 mps 741 mmHg 75%
    01:00 +17°C° 0 mm 0 mps 741 mmHg 74%
    02:00 +19°C° 0 mm 1 mps 740 mmHg 73%
    03:00 +19°C° 0 mm 1 mps 740 mmHg 72%
    04:00 +19°C° 0 mm 1 mps 740 mmHg 71%
    05:00 +19°C° 0 mm 1 mps 740 mmHg 70%
    06:00 +19°C° 0 mm 1 mps 740 mmHg 66%
    07:00 +20°C° 0 mm 1 mps 740 mmHg 62%
    08:00 +21°C° 0 mm 1 mps 740 mmHg 57%
    09:00 +22°C° 0 mm 1 mps 740 mmHg 55%
    10:00 +23°C° 0 mm 1 mps 740 mmHg 52%
    11:00 +23°C° 0 mm 2 mps 740 mmHg 49%
    12:00 +23°C° 0 mm 2 mps 740 mmHg 49%
    13:00 +24°C° 0 mm 2 mps 739 mmHg 48%
    14:00 +23°C° 0 mm 2 mps 739 mmHg 52%
    15:00 +21°C° 0 mm 2 mps 739 mmHg 58%
    16:00 +21°C° 0 mm 2 mps 739 mmHg 63%
    17:00 +20°C° 0 mm 2 mps 739 mmHg 68%
    18:00 +20°C° 0.1 mm 2 mps 739 mmHg 70%
    19:00 +19°C° 0.1 mm 2 mps 738 mmHg 72%
    20:00 +20°C° 0.1 mm 1 mps 738 mmHg 75%
    21:00 +19°C° 0.2 mm 2 mps 738 mmHg 73%
    22:00 +19°C° 0.2 mm 2 mps 738 mmHg 71%
    23:00 +18°C° 0.2 mm 2 mps 738 mmHg 69%

    Tomorrow, 22 November, Thursday

    Time Temperature Precipitation Wind Pressure Humidity
    00:00 +18°C° 0 mm 2 mps 738 mmHg 68%
    01:00 +18°C° 0 mm 2 mps 738 mmHg 67%
    02:00 +18°C° 0 mm 2 mps 737 mmHg 67%
    03:00 +18°C° 0.3 mm 2 mps 737 mmHg 68%
    04:00 +18°C° 0.3 mm 3 mps 737 mmHg 69%
    05:00 +17°C° 0.3 mm 3 mps 737 mmHg 70%
    06:00 +17°C° 0.4 mm 3 mps 737 mmHg 74%
    07:00 +17°C° 0.4 mm 3 mps 737 mmHg 77%
    08:00 +17°C° 0.4 mm 3 mps 737 mmHg 80%
    09:00 +19°C° 0.4 mm 3 mps 737 mmHg 72%
    10:00 +20°C° 0.4 mm 3 mps 737 mmHg 63%
    11:00 +21°C° 0.4 mm 4 mps 737 mmHg 54%
    12:00 +21°C° 0.4 mm 4 mps 736 mmHg 54%
    13:00 +22°C° 0.4 mm 4 mps 736 mmHg 54%
    14:00 +22°C° 0.4 mm 5 mps 735 mmHg 54%
    15:00 +21°C° 0.5 mm 4 mps 735 mmHg 59%
    16:00 +20°C° 0.5 mm 4 mps 735 mmHg 64%
    17:00 +19°C° 0.5 mm 4 mps 735 mmHg 70%
    18:00 +19°C° 0.4 mm 3 mps 735 mmHg 72%
    19:00 +18°C° 0.4 mm 3 mps 736 mmHg 74%
    20:00 +18°C° 0.4 mm 3 mps 736 mmHg 76%
    21:00 +17°C° 0.4 mm 3 mps 736 mmHg 77%
    22:00 +17°C° 0.4 mm 3 mps 736 mmHg 78%
    23:00 +17°C° 0.4 mm 3 mps 736 mmHg 79%

    Day after tomorrow, 23 November, Friday

    Time Temperature Precipitation Wind Pressure Humidity
    00:00 +16°C° 0.6 mm 2 mps 735 mmHg 80%
    01:00 +16°C° 0.6 mm 2 mps 735 mmHg 81%
    02:00 +16°C° 0.6 mm 2 mps 735 mmHg 82%
    03:00 +16°C° 0.3 mm 2 mps 735 mmHg 81%
    04:00 +16°C° 0.3 mm 2 mps 735 mmHg 81%
    05:00 +16°C° 0.3 mm 2 mps 735 mmHg 81%
    06:00 +16°C° 0.5 mm 2 mps 735 mmHg 78%
    07:00 +17°C° 0.5 mm 3 mps 735 mmHg 75%
    08:00 +17°C° 0.5 mm 3 mps 735 mmHg 73%
    09:00 +18°C° 0.8 mm 3 mps 735 mmHg 69%
    10:00 +19°C° 0.8 mm 4 mps 736 mmHg 66%
    11:00 +19°C° 0.8 mm 4 mps 736 mmHg 63%
    12:00 +19°C° 0.7 mm 4 mps 735 mmHg 63%
    13:00 +19°C° 0.7 mm 4 mps 735 mmHg 64%
    14:00 +19°C° 0.7 mm 4 mps 734 mmHg 65%
    15:00 +18°C° 0.5 mm 4 mps 734 mmHg 68%
    16:00 +18°C° 0.5 mm 3 mps 735 mmHg 72%
    17:00 +17°C° 0.5 mm 3 mps 735 mmHg 75%
    18:00 +17°C° 0.7 mm 2 mps 735 mmHg 77%
    19:00 +17°C° 0.7 mm 2 mps 735 mmHg 79%
    20:00 +16°C° 0.7 mm 2 mps 735 mmHg 81%
    21:00 +16°C° 0.7 mm 2 mps 735 mmHg 81%
    22:00 +16°C° 0.7 mm 2 mps 736 mmHg 81%
    23:00 +16°C° 0.7 mm 2 mps 736 mmHg 81%

    24 November, Saturday

    Time Temperature Precipitation Wind Pressure Humidity
    00:00 +16°C° 0.5 mm 2 mps 736 mmHg 81%
    01:00 +15°C° 0.5 mm 2 mps 736 mmHg 82%
    02:00 +14°C° 0.5 mm 3 mps 735 mmHg 82%
    03:00 +14°C° 0.3 mm 3 mps 736 mmHg 81%
    04:00 +14°C° 0.3 mm 3 mps 736 mmHg 81%
    05:00 +14°C° 0.3 mm 3 mps 736 mmHg 80%
    06:00 +14°C° 0 mm 3 mps 736 mmHg 76%
    07:00 +16°C° 0 mm 3 mps 737 mmHg 71%
    08:00 +17°C° 0 mm 3 mps 737 mmHg 67%
    09:00 +17°C° 0 mm 3 mps 737 mmHg 62%
    10:00 +18°C° 0 mm 3 mps 737 mmHg 57%
    11:00 +19°C° 0 mm 3 mps 738 mmHg 52%
    12:00 +20°C° 0 mm 2 mps 737 mmHg 52%
    13:00 +20°C° 0 mm 2 mps 737 mmHg 51%
    14:00 +20°C° 0 mm 2 mps 737 mmHg 51%
    15:00 +19°C° 0 mm 2 mps 737 mmHg 55%
    16:00 +20°C° 0 mm 1 mps 737 mmHg 59%
    17:00 +19°C° 0 mm 1 mps 738 mmHg 63%
    18:00 +18°C° 0 mm 1 mps 738 mmHg 66%
    19:00 +18°C° 0 mm 1 mps 738 mmHg 69%
    20:00 +16°C° 0 mm 1 mps 739 mmHg 72%
    21:00 +16°C° 0.2 mm 1 mps 739 mmHg 73%
    22:00 +16°C° 0.2 mm 1 mps 739 mmHg 74%
    23:00 +16°C° 0.2 mm 1 mps 739 mmHg 76%

    25 November, Sunday

    Time Temperature Precipitation Wind Pressure Humidity
    00:00 +15°C° 0 mm 1 mps 739 mmHg 77%
    01:00 +15°C° 0 mm 1 mps 739 mmHg 77%
    02:00 +15°C° 0 mm 1 mps 738 mmHg 78%
    03:00 +15°C° 0 mm 1 mps 738 mmHg 79%
    04:00 +13°C° 0 mm 0 mps 739 mmHg 79%
    05:00 +13°C° 0 mm 0 mps 739 mmHg 80%
    06:00 +15°C° 0.1 mm 1 mps 739 mmHg 76%
    07:00 +16°C° 0.1 mm 1 mps 739 mmHg 73%
    08:00 +16°C° 0.1 mm 1 mps 740 mmHg 69%
    09:00 +18°C° 0.1 mm 1 mps 740 mmHg 64%
    10:00 +18°C° 0.1 mm 2 mps 740 mmHg 60%
    11:00 +20°C° 0.1 mm 2 mps 740 mmHg 55%
    12:00 +20°C° 0.1 mm 2 mps 739 mmHg 55%
    13:00 +20°C° 0.1 mm 3 mps 739 mmHg 55%
    14:00 +20°C° 0.1 mm 3 mps 739 mmHg 55%
    15:00 +19°C° 0.1 mm 3 mps 739 mmHg 61%
    16:00 +18°C° 0.1 mm 2 mps 739 mmHg 67%
    17:00 +17°C° 0.1 mm 2 mps 739 mmHg 73%
    18:00 +17°C° 0.1 mm 2 mps 739 mmHg 76%
    19:00 +18°C° 0.1 mm 1 mps 739 mmHg 79%
    20:00 +16°C° 0.1 mm 1 mps 740 mmHg 82%
    21:00 +16°C° 0 mm 1 mps 739 mmHg 83%
    22:00 +15°C° 0 mm 1 mps 739 mmHg 83%
    23:00 +14°C° 0 mm 0 mps 739 mmHg 84%

    26 November, Monday

    Time Temperature Precipitation Wind Pressure Humidity
    00:00 +14°C° 0 mm 0 mps 739 mmHg 85%
    01:00 +14°C° 0 mm 0 mps 739 mmHg 85%
    02:00 +13°C° 0 mm 0 mps 739 mmHg 86%
    03:00 +14°C° 0 mm 1 mps 739 mmHg 86%
    04:00 +14°C° 0 mm 1 mps 739 mmHg 87%
    05:00 +14°C° 0 mm 1 mps 739 mmHg 87%
    06:00 +15°C° 0 mm 1 mps 739 mmHg 82%
    07:00 +16°C° 0 mm 1 mps 739 mmHg 77%
    08:00 +16°C° 0 mm 1 mps 739 mmHg 72%
    09:00 +18°C° 0 mm 2 mps 739 mmHg 65%
    10:00 +19°C° 0 mm 2 mps 739 mmHg 59%
    11:00 +20°C° 0 mm 2 mps 739 mmHg 52%
    12:00 +20°C° 0 mm 2 mps 739 mmHg 52%
    13:00 +20°C° 0 mm 2 mps 738 mmHg 51%
    14:00 +21°C° 0 mm 2 mps 738 mmHg 50%
    15:00 +20°C° 0 mm 2 mps 738 mmHg 55%
    16:00 +19°C° 0 mm 2 mps 738 mmHg 61%
    17:00 +19°C° 0 mm 1 mps 738 mmHg 67%
    18:00 +18°C° 0 mm 1 mps 738 mmHg 70%
    19:00 +18°C° 0 mm 1 mps 738 mmHg 73%
    20:00 +18°C° 0 mm 1 mps 739 mmHg 76%
    21:00 +18°C° 0 mm 1 mps 738 mmHg 74%
    22:00 +18°C° 0 mm 1 mps 738 mmHg 73%
    23:00 +18°C° 0 mm 1 mps 738 mmHg 72%
    Show more